Starlink 11554

operational
NORAD ID: 62833 Int'l Des: 2025-019 Owner: SPXS Country: US Constellation: starlink
LEOCIRCULAR

关于 Starlink 11554

正在加载描述...

实时位置

正在加载3D地球...

即将过境

高度历史

Altitude vs Time

uPlot chart will show altitude changes over time

两行轨道根数

1 62833U 25019E 25353.55152626 .00165012 00000-0 12574-2 0 9995
2 62833 43.0006 69.3394 0003291 267.0333 93.0158 15.70963205 51279
Epoch: Dec 19, 2025 • Age: 7 hours

当前状态

高度 366.9 km
速度 7.69 km/s
星下点 -42.95°S, 51.87°W
发射日期 Jan 27, 2025
运行时间 0.8 years
类型 internet

技术详情

分类 Payload
质量 960.00 kg
干质量 910.00 kg
总质量 960.00 kg
长度 0.30 m
直径 4.10 m
跨度 29.00 m
形状 Box + pan
制造商 SPXS
平台类型 Starlink V2MD
阶段状态 In Orbit
所有者/国家 SPXS/US

大型星座

Loading constellations...